STARLINK-4532 (53424 NORAD) Tracking and Keplerian Element Data

This shows tracking and keplerian element data for the satellite.

Feedback or suggestion? Click here.




ElementValue
Catalog53424
NameSTARLINK-4532
Epoch Orbit1674
Epoch Day324.75120008
Epoch Year2022
RAAN123.2969
Inclination53.2214
Eccentricity0.0001957
Argument of Perigee54.8948
Mean Anonmoly305.2227
Mean Motion15.08834898
Decay Rate-8.7E-07
L11 53424U 22097AN 22324.75120008 -.00000087 00000+0 12618-4 0 9991
L22 53424 53.2214 123.2969 0001957 54.8948 305.2227 15.08834898 16742



Live tracking and technical data element details for STARLINK-4532 (NORAD 53424). STARLINK-4532 can be tracked NOW for your location showing map with azimuth and elevation plus other details from your city location.







IsCatalogInMostPopularTable: catalog: 53424, numindb: 3
Update: records affected: 1



GetName: 53424 STARLINK-4532

Hit Count: updated at: Thu, 08 Dec 2022 20:33:52 GMT